This demonstration page uses our WeatherBlox Daily Observations layout. Learn more.

Left ArrowRight Arrow

53.62937, 11.41316

Hourly Observations for April 17, 2021

Temp ( °F °C ) Dew Point ( °F °C ) Humidity (%) Winds ( mph kmh ) Pressure ( in mb ) Visibility ( mi km ) Precip ( " mm )
7:50 am 07:50 Mostly Sunny 41 5 36 2 81 81 NNW 5 7 30.24 1024 7 11 N/A
8:20 am 08:20 Mostly Sunny 43 6 36 2 76 76 N 7 11 30.24 1024 7 11 N/A
8:50 am 08:50 Mostly Sunny 46 8 36 2 66 66 NNE 7 11 30.24 1024 7 11 N/A
9:20 am 09:20 Mostly Sunny 46 8 32 0 57 57 N 9 15 30.24 1024 7 11 N/A
9:50 am 09:50 Mostly Sunny 48 9 28 -2 46 46 NE 10 17 30.24 1024 7 11 N/A
10:20 am 10:20 Mostly Sunny 48 9 28 -2 46 46 NE 12 19 30.24 1024 7 11 N/A
10:50 am 10:50 Mostly Sunny 50 10 30 -1 47 47 NNE 12 19 30.24 1024 7 11 N/A
11:20 am 11:20 Mostly Sunny 50 10 28 -2 43 43 NNE 13 20 30.24 1024 7 11 N/A
11:50 am 11:50 Mostly Sunny 50 10 28 -2 43 43 NNE 14 22 30.24 1024 7 11 N/A
12:20 pm 12:20 Mostly Sunny 52 11 30 -1 44 44 N 13 20 30.24 1024 7 11 N/A
12:50 pm 12:50 Mostly Sunny 50 10 28 -2 43 43 NE 13 20 30.24 1024 7 11 N/A
1:20 pm 13:20 Mostly Sunny 50 10 30 -1 47 47 NNE 15 24 30.24 1024 7 11 N/A
1:50 pm 13:50 Mostly Sunny 50 10 32 0 50 50 NNE 13 20 30.21 1023 7 11 N/A
2:20 pm 14:20 Mostly Sunny 52 11 32 0 47 47 NNE 16 26 30.21 1023 7 11 N/A
2:50 pm 14:50 Mostly Sunny 52 11 32 0 47 47 NNE 15 24 30.21 1023 7 11 N/A
3:20 pm 15:20 Mostly Sunny 52 11 32 0 47 47 NNE 16 26 30.21 1023 7 11 N/A
3:50 pm 15:50 Mostly Sunny 52 11 32 0 47 47 NNE 17 28 30.21 1023 7 11 N/A
4:20 pm 16:20 Mostly Sunny 54 12 36 2 51 51 NE 15 24 30.21 1023 7 11 N/A
4:50 pm 16:50 Mostly Sunny 50 10 32 0 50 50 NE 15 24 30.21 1023 7 11 N/A
5:20 pm 17:20 Mostly Sunny 50 10 32 0 50 50 NNE 15 24 30.21 1023 7 11 N/A
5:50 pm 17:50 Mostly Sunny 50 10 34 1 54 54 NNE 13 20 30.21 1023 7 11 N/A
6:20 pm 18:20 Mostly Sunny 48 9 36 2 62 62 NE 14 22 30.21 1023 7 11 N/A
6:50 pm 18:50 Mostly Sunny 48 9 32 0 54 54 NE 13 20 30.21 1023 7 11 N/A
7:20 pm 19:20 Mostly Sunny 48 9 32 0 54 54 NNE 13 20 30.21 1023 7 11 N/A
7:50 pm 19:50 Mostly Sunny 46 8 34 1 62 62 NNE 12 19 30.21 1023 7 11 N/A
8:20 pm 20:20 Mostly Sunny 45 7 34 1 66 66 NE 10 17 30.21 1023 7 11 N/A
8:50 pm 20:50 Mostly Clear 45 7 36 2 71 71 NE 9 15 30.21 1023 7 11 N/A

Powered by AerisWeather